Regional Weather Roundup
Issued by NWS Charleston, SC

Current Version | Previous Version | Graphics & Text | Print | Product List | Glossary On
Versions: 1 2 3 4 5 6 7 8 9 10 11 12 13 14 15 16 17 18 19 20 21 22 23 24 25 26 27 28 29 30 31 32 33 34 35 36 37 38 39 40 41 42 43 44 45 46 47 48 49 50
000 ASUS42 KCHS 010625 RWRCHS REGIONAL WEATHER ROUNDUP NATIONAL WEATHER SERVICE CHARLESTON SC 200 AM EDT MON SEP 01 2014 NOTE: "FAIR" INDICATES FEW OR NO CLOUDS BELOW 12,000 FEET WITH NO SIGNIFICANT WEATHER AND/OR OBSTRUCTIONS TO VISIBILITY. NOT ALL STATIONS ARE QUALITY CONTROLLED BY THE NATIONAL WEATHER SERVICE. USE DATA WITH CAUTION...ESPECIALLY DEWPOINT OBSERVATIONS. SCZ027-030-031-034>040-042>050-010700- ...SOUTH CAROLINA... CITY SKY/WX TMP DP RH WIND PRES REMARKS N CHARLESTON FAIR 79 75 87 S5 30.10F 6HR MIN TEMP: 79; 6HR MAX TEMP: 83; WATERFRONT PRK N/A 82 N/A N/A S7 N/A FORT JOHNSON NOT AVBL MOUNT PLEASANT FAIR 77 75 94 S3 30.09F FOG JOHNS ISLAND CLEAR 81 79 94 CALM 30.10F PINOPOLIS N/A 81 75 83 S2 30.02F MONCKS CORNER N/A 77 75 94 CALM 30.09F SUMMERVILLE FAIR 73 73 100 CALM 30.10F BEAUFORT MCAS FAIR 81 76 84 CALM 30.10F 6HR MIN TEMP: 80; 6HR MAX TEMP: 83; BEAUFORT ARPT FAIR 81 79 94 CALM 30.09F HILTON HEAD IS FAIR 81 77 89 SW5 30.11F GEORGETOWN NOT AVBL WALTERBORO FAIR 77 N/A N/A CALM 30.10F ORANGEBURG FAIR 75 72 90 CALM 30.11S 6HR MIN TEMP: 75; 6HR MAX TEMP: 81; 6HR PCP: TRACE; BARNWELL FAIR 75 73 94 CALM 30.11S AIKEN FAIR 73 73 100 S3 30.14S MANNING FAIR 77 N/A N/A CALM 30.09F KINGSTREE NOT AVBL COLUMBIA FAIR 76 72 87 SW3 30.09F 6HR MIN TEMP: 76; 6HR MAX TEMP: 82; 6HR PCP: 0.09; SUMTER FAIR 75 74 97 SE3 30.09S 6HR MIN TEMP: 74; 6HR MAX TEMP: 78; 6HR PCP: 0.10; FLORENCE FAIR 77 74 90 SW5 30.09S 6HR MIN TEMP: 77; 6HR MAX TEMP: 85; MYRTLE BEACH FAIR 79 73 83 SW5 30.10F N MYRTLE BEACH FAIR 80 75 84 W3 30.10F 6HR MIN TEMP: 80; 6HR MAX TEMP: 83; $$ GAZ063-065-086>088-099>101-113>116-118-119-134-136>141-150-010700- ...GEORGIA... CITY SKY/WX TMP DP RH WIND PRES REMARKS SAVANNAH ARPT FAIR 77 72 84 S3 30.10F 6HR MIN TEMP: 77; 6HR MAX TEMP: 83; HUNTER AAF FAIR 76 74 92 E2 30.09F 6HR MIN TEMP: 76; 6HR MAX TEMP: 82; FORT STEWART FAIR 74 70 88 SW5 30.10S 6HR MIN TEMP: 73; 6HR MAX TEMP: 83; STATESBORO NOT AVBL SYLVANIA FAIR 67 67 100 CALM 30.11S CLAXTON NOT AVBL THOMSON FAIR 76 76 99 CALM 30.14F AUGUSTA-BUSH FAIR 73 72 96 CALM 30.10R FOG 6HR MIN TEMP: 72; 6HR MAX TEMP: 76; AUGUSTA-DANIEL FAIR 75 73 93 SE7 30.11S SWAINSBORO FAIR 77 77 100 CALM 30.12S VIDALIA N/A 73 72 94 CALM 30.11F ALMA FAIR 74 73 97 CALM 30.11S 6HR MIN TEMP: 74; 6HR MAX TEMP: 76; 6HR PCP: 0.97; WAYCROSS FAIR 78 77 96 SW9 30.10F JESUP N/A 77 73 88 CALM 30.11S BRUNSWICK FAIR 75 72 88 CALM 30.11F SAINT SIMONS FAIR 78 74 87 W6 30.12S 6HR MIN TEMP: 78; 6HR MAX TEMP: 83; $$ SCZ027-028-034-036>038-045-046-048>050-GAZ119-141-010700- ...LAKE AND SUPPLEMENTAL COASTAL OBSERVATIONS... STATION/POSITION TIME TEMP WIND PRES WAVE SWELL AIR SEA DIR/SP/G HT/PER HT/PER/DIR (UTC) (F) (DEG/KT/KT) (MB) (FT/S) (FT/S/D) UPR LAKE MARION NOT AVBL WINYAH BAY 0600 80 230/ 4 1019.0S LAKE MURRAY 0500 79 160/ 8/ 9 1018.6S ACE BASIN NERRS 0600 78 CALM 1019.0S FORT PULASKI 0600 82 200/ 5/ 7 1019.5F SAPELO ISLAND 0600 79 240/ 6 1020.0S $$ ANZ835-935-AMZ111-154-330-350-352-354-374-450-454-472-010700- ...C-MAN AND BUOY OBSERVATIONS... STATION/POSITION TIME TEMP WIND PRES WAVE SWELL AIR SEA DIR/SP/G HT/PER HT/PER/DIR (UTC) (F) (DEG/KT/KT) (MB) (FT/S) (FT/S/D) FOLLY BEACH CMAN 0600 82 190/ 11/ 13 1019.6F BUOY 41004 0600 82 83 220/ 10/ 12 1019.2F 2/ 9 2/ 9 BUOY 41008 0600 83 85 210/ 12/ 16 1019.5F 2/ 9 2/120/ 9 5E ST. MARYS GA 0600 84 N/A 3/ 9 FRYING PAN BUOY NOT AVBL BUOY 41025 0600 82 200/ 16/ 17 1019.8F 4/ 8 3/120/ 8 CAPE LOOKOUT NC 0600 81 200/ 10/ 11 1019.6F BUOY 41002 0518 81 83 200/ 6/ 8 1021.9F 3/ 9 2/130/ 9 BUOY 41010 0600 83 84 140/ 6/ 8 1020.4F 3/ 8 3/ 90/ 8 BUOY 41012 NOT AVBL ST AUGUSTINE FL 0600 79 210/ 5/ 6 1020.5F CAPERS NEARSHORE 0500 82 220/ 12/ 14 N/A FRIPP NEARSHORE NOT AVBL $$

USA.gov is the U.S. government's official web portal to all federal, state and local government web resources and services.